Location: Melizzano
(41.1500°N, 14.5000°E)
Time: 13:56:26
(UTC+00:00)

ATLAS 5 CENTAUR R/B - Pass Details

Date: 11 May 2021
Orbit: 513 x 1144 km, 63.3° (Epoch: 18 June)

Event Time Altitude Azimuth Distance (km) Brightness Sun altitude
Rises 18:56:40 0° 328° (NNW) 3,251 6.6 -8.6°
Reaches altitude 10° 18:58:58 10° 334° (NNW) 2,414 5.6 -8.9°
Maximum altitude 19:04:31 54° 51° (NE) 1,108 2.7 -9.8°
Enters shadow 19:10:16 13° 127° (SE) 2,555 4.0 -10.7°
